[[{"header":{"parameterUnit":"m.s-1","parameterCategory":1,"la1":30.2992,"la2":30.254,"lo1":-89.0895,"lo2":-89.0443,"dy":0.0025,"dx":0.0025,"nx":19,"ny":19,"refTime":"2026-03-11T09:00:00:Z","depth":0,"parameterNumber":2,"parameterNumberName":"U-component_of_WINDS"},"data":[0,0,0,-2.4396,-2.4399,-2.4528,-2.4529,-2.469,-2.4691,0,0,0,0,0,0,0,0,0,0,0,-2.4354,-2.4355,-2.4396,-2.4399,-2.4528,-2.4529,-2.469,-2.4691,0,0,0,0,0,0,0,0,0,0,0,-2.4354,-2.4355,-2.4356,-2.4399,-2.4528,-2.4529,-2.4689,-2.4594,0,0,0,0,0,0,0,0,0,0,-2.4469,-2.4426,-2.4354,-2.4356,-2.44,-2.4528,-2.4529,-2.4589,-2.46,-2.4629,0,-2.4653,0,-2.4675,-2.4702,-2.4702,0,0,0,-2.4402,-2.4417,-2.4455,-2.4356,-2.4401,-2.4527,-2.4471,-2.4595,-2.4607,-2.4643,-2.4656,-2.4662,-2.4677,-2.4703,-2.4704,-2.486,-2.486,0,0,-2.4395,-2.4375,-2.4447,-2.4463,-2.4441,-2.4467,-2.4475,-2.4602,-2.4615,-2.4656,-2.4666,-2.468,-2.4704,-2.4705,-2.4859,-2.486,0,0,0,-2.4373,-2.437,-2.4406,-2.4456,-2.4479,-2.447,-2.448,-2.4609,-2.4623,-2.4667,-2.4682,-2.4705,-2.4707,-2.4859,-2.486,-2.4867,0,0,0,-2.4368,-2.4357,-2.4402,-2.4391,-2.4477,-2.4546,-2.4484,-2.4614,-2.4629,-2.4681,-2.4705,-2.4708,-2.4858,-2.4859,-2.4866,-2.4874,0,0,0,-2.4347,-2.4355,-2.4372,-2.439,-2.4445,-2.4544,-2.4565,-2.4617,-2.4638,-2.4702,-2.4709,-2.4858,-2.4859,-2.4864,-2.4872,-2.4909,0,0,0,-2.4319,-2.4378,-2.4371,-2.4443,-2.4443,-2.4548,-2.4564,-2.4643,-2.47,-2.4706,-2.4858,-2.486,-2.4864,-2.4871,-2.4907,-2.4935,-2.4945,0,0,-2.4382,-2.4384,-2.4428,-2.4427,-2.4526,-2.453,-2.4632,-2.4703,-2.4729,-2.4815,-2.4819,-2.4866,-2.4872,-2.4909,-2.5011,-2.5018,0,0,0,-2.4442,-2.4473,-2.4504,-2.4556,-2.4611,-2.466,-2.4718,-2.4745,-2.4819,-2.4768,-2.4891,-2.4895,-2.4917,-2.4932,-2.4938,-2.4959,-2.4866,-2.4865,-2.4865,-2.4502,-2.453,-2.4605,-2.4649,-2.47,-2.4759,-2.4804,-2.485,-2.4865,-2.4893,-2.4919,-2.4977,-2.4993,-2.4998,-2.5019,-2.4937,-2.4937,-2.4937,-2.4937,-2.4597,-2.4645,-2.4663,-2.4741,-2.4772,-2.4839,-2.4899,-2.4907,-2.4975,-2.496,-2.4981,-2.4961,-2.5006,-2.5026,-2.4938,-2.4938,-2.4938,-2.4938,-2.4938,-2.4638,-2.4666,-2.4697,-2.4776,-2.4834,-2.4878,-2.4942,-2.4968,-2.4994,-2.5015,-2.5044,-2.5044,-2.5047,-2.5027,-2.5027,-2.5028,-2.5028,-2.5028,-2.5028,-2.4669,-2.4704,-2.4753,-2.4817,-2.4855,-2.4907,-2.4969,-2.5007,-2.5056,-2.507,-2.507,-2.5082,-2.5005,-2.4984,-2.5031,-2.5031,-2.503,-2.503,-2.503,-2.4753,-2.4738,-2.4814,-2.4851,-2.4929,-2.4985,-2.5018,-2.5094,-2.513,-2.516,-2.5169,-2.5107,-2.5112,-2.5107,-2.509,-2.5162,-2.5162,-2.5162,-2.5162,-2.4787,-2.4792,-2.4876,-2.4934,-2.4994,-2.5031,-2.5119,-2.5168,-2.5216,-2.524,-2.5234,-2.5215,-2.5208,-2.5217,-2.521,-2.5194,-2.5291,-2.5291,-2.5291,-2.484,-2.4852,-2.492,-2.4965,-2.5029,-2.5083,-2.5166,-2.5233,-2.5286,-2.5297,-2.526,-2.5254,-2.5223,-2.5211,-2.522,-2.5208,-2.518,0,0]},{"header":{"parameterUnit":"m.s-1","parameterCategory":1,"la1":30.2992,"la2":30.254,"lo1":-89.0895,"lo2":-89.0443,"dy":0.0025,"dx":0.0025,"nx":19,"ny":19,"refTime":"2026-03-11T09:00:00:Z","depth":0,"parameterNumber":3,"parameterNumberName":"V-component_of_WINDS"},"data":[0,0,0,4.2869,4.2871,4.3,4.3,4.3162,4.3163,0,0,0,0,0,0,0,0,0,0,0,4.2827,4.2828,4.2869,4.2872,4.3,4.3,4.3162,4.3163,0,0,0,0,0,0,0,0,0,0,0,4.2826,4.2828,4.2829,4.2872,4.3,4.3,4.3161,4.3066,0,0,0,0,0,0,0,0,0,0,4.2942,4.2899,4.2827,4.2829,4.2873,4.2999,4.3,4.3062,4.3072,4.3102,0,4.3126,0,4.3147,4.3174,4.3174,0,0,0,4.2875,4.289,4.2928,4.2829,4.2874,4.2999,4.2943,4.3067,4.3079,4.3116,4.3128,4.3134,4.315,4.3175,4.3176,4.3336,4.3336,0,0,4.2868,4.2848,4.292,4.2936,4.2913,4.2939,4.2947,4.3075,4.3087,4.3129,4.3138,4.3152,4.3176,4.3177,4.3335,4.3336,0,0,0,4.2845,4.2843,4.2878,4.2929,4.2952,4.2942,4.2952,4.3082,4.3095,4.314,4.3154,4.3177,4.3179,4.3335,4.3335,4.3346,0,0,0,4.2841,4.283,4.2875,4.2864,4.2949,4.3018,4.2956,4.3086,4.3101,4.3154,4.3177,4.318,4.3334,4.3335,4.3345,4.3355,0,0,0,4.282,4.2827,4.2844,4.2863,4.2917,4.3016,4.3037,4.309,4.311,4.3175,4.3181,4.3334,4.3335,4.3343,4.3353,4.3394,0,0,0,4.2792,4.2851,4.2844,4.2917,4.2916,4.3021,4.3036,4.3116,4.3173,4.3178,4.3334,4.3335,4.3343,4.3351,4.3392,4.3425,4.3437,0,0,4.2856,4.2858,4.2903,4.29,4.3002,4.3003,4.3108,4.3178,4.3203,4.3291,4.3295,4.3345,4.3353,4.3393,4.3505,4.3514,0,0,0,4.2917,4.2949,4.298,4.3033,4.3088,4.3138,4.3195,4.3222,4.3298,4.3243,4.3371,4.3376,4.34,4.3417,4.3425,4.3449,4.3342,4.3342,4.3342,4.298,4.3008,4.3085,4.313,4.3181,4.3241,4.3286,4.3333,4.3346,4.3376,4.3403,4.3467,4.3486,4.3492,4.3516,4.3421,4.3421,4.3421,4.3421,4.3079,4.313,4.3147,4.3227,4.3258,4.3327,4.3388,4.3396,4.3467,4.3448,4.3472,4.3451,4.3501,4.3524,4.3423,4.3422,4.3422,4.3422,4.3422,4.3125,4.3154,4.3186,4.3267,4.3328,4.3372,4.3439,4.3465,4.3489,4.3512,4.3545,4.3545,4.355,4.3526,4.3526,4.3526,4.3526,4.3526,4.3527,4.3161,4.3196,4.3249,4.3314,4.3353,4.3408,4.3471,4.3511,4.3562,4.3576,4.3576,4.3589,4.3499,4.3477,4.353,4.353,4.3529,4.3529,4.3528,4.3253,4.3237,4.3318,4.3357,4.3439,4.3499,4.3531,4.3611,4.3648,4.3681,4.3689,4.3618,4.3623,4.3617,4.3599,4.368,4.368,4.368,4.368,4.3294,4.3298,4.3389,4.3451,4.3514,4.3552,4.3647,4.3698,4.3747,4.3773,4.3765,4.3743,4.3736,4.3745,4.3737,4.3721,4.3831,4.3831,4.3831,4.3354,4.3366,4.3441,4.3488,4.3554,4.3611,4.3703,4.3775,4.3828,4.3838,4.3795,4.3788,4.3753,4.374,4.3749,4.3735,4.3706,0,0]}]]